This demonstration page uses our WeatherBlox Daily Observations layout. Learn more.

Left ArrowRight Arrow

Hourly Observations for January 9, 2022

Temp ( °F °C ) Dew Point ( °F °C ) Humidity (%) Winds ( mph kmh ) Pressure ( in mb ) Visibility ( mi km ) Precip ( " mm )
12:53 am 00:53 Clear 51 10.6 26 -3.3 38 38 WNW 9 15 29.98 1015 10 16 0.00 0.00
1:53 am 01:53 Clear 52 11.1 25 -3.9 35 35 NNW 12 19 29.99 1016 10 16 0.00 0.00
2:53 am 02:53 Clear 50 10 24 -4.4 36 36 N 7 11 30.02 1017 10 16 0.00 0.00
3:53 am 03:53 Clear 45 7.2 23 -5 42 42 N 6 9 30.05 1018 10 16 0.00 0.00
4:53 am 04:53 Clear 49 9.4 25 -3.9 39 39 NNE 16 26 30.11 1020 10 16 0.00 0.00
5:53 am 05:53 Clear 46 7.8 26 -3.3 46 46 N 12 19 30.15 1021 10 16 0.00 0.00
6:53 am 06:53 Clear 45 7.2 26 -3.3 48 48 NNE 18 30 30.22 1024 10 16 0.00 0.00
7:53 am 07:53 Clear 43 6.1 26 -3.3 51 51 NNE 20 31 30.29 1026 10 16 0.00 0.00
8:53 am 08:53 Sunny 42 5.6 26 -3.3 53 53 NNE 18 30 30.36 1028 10 16 0.00 0.00
9:53 am 09:53 Sunny 42 5.6 24 -4.4 49 49 NNE 14 22 30.42 1030 10 16 0.00 0.00
10:53 am 10:53 Sunny 42 5.6 24 -4.4 49 49 N 14 22 30.47 1032 10 16 0.00 0.00
11:53 am 11:53 Sunny 45 7.2 21 -6.1 39 39 N 15 24 30.47 1032 10 16 0.00 0.00
12:53 pm 12:53 Sunny 47 8.3 20 -6.7 34 34 N 12 19 30.46 1031 10 16 0.00 0.00
1:53 pm 13:53 Sunny 49 9.4 20 -6.7 32 32 NNE 14 22 30.43 1031 10 16 0.00 0.00
2:53 pm 14:53 Sunny 50 10 19 -7.2 29 29 N 15 24 30.42 1030 10 16 0.00 0.00
3:53 pm 15:53 Sunny 51 10.6 19 -7.2 28 28 NNE 14 22 30.44 1031 10 16 0.00 0.00
4:53 pm 16:53 Sunny 51 10.6 17 -8.3 26 26 N 12 19 30.44 1031 10 16 0.00 0.00
5:53 pm 17:53 Partly Cloudy 49 9.4 15 -9.4 26 26 NNE 13 20 30.47 1032 10 16 0.00 0.00
6:53 pm 18:53 Partly Cloudy 46 7.8 15 -9.4 29 29 N 13 20 30.50 1033 10 16 0.00 0.00
7:53 pm 19:53 Clear 42 5.6 15 -9.4 33 33 NNW 7 11 30.54 1034 10 16 0.00 0.00
8:53 pm 20:53 Clear 39 3.9 15 -9.4 38 38 N 7 11 30.57 1035 10 16 0.00 0.00
9:53 pm 21:53 Clear 36 2.2 14 -10 40 40 N 6 9 30.59 1036 10 16 0.00 0.00
10:53 pm 22:53 Clear 36 2.2 15 -9.4 42 42 N 6 9 30.61 1037 10 16 0.00 0.00
11:53 pm 23:53 Clear 36 2.2 16 -8.9 44 44 N 6 9 30.60 1036 10 16 0.00 0.00

Powered by AerisWeather